EW2957 Weather Reports


time (UTC)temp
F
wind
direction
speed
knots
gust
knots
rain 1hr
in
rain 24hr
in
rain mn
in
humidity
%
barometer
mb
20260507063059 55 128 0.0 0.0 0.00 0.00 0.00 85 1019.7
20260507061550 55 195 0.0 0.0 0.00 0.00 0.00 84 1019.7
20260507060049 55 202 0.0 0.0 0.00 0.00 0.00 84 1019.7
20260507054537 56 169 0.0 0.0 0.00 0.00 0.00 84 1019.8
20260507053032 56 218 0.0 0.0 0.00 0.00 0.00 83 1019.8
20260507051520 56 240 0.0 0.0 0.00 0.00 0.00 82 1019.8
20260507050024 56 240 0.0 0.0 0.00 0.00 0.00 82 1019.8
20260507044517 56 215 0.0 0.0 0.00 0.00 0.00 81 1019.7
20260507043022 56 166 0.0 0.0 0.00 0.00 0.00 81 1019.6
20260507041517 56 148 0.0 0.0 0.00 0.00 0.00 81 1019.4
20260507040015 57 138 0.0 0.0 0.00 0.00 0.00 82 1019.6
20260507034515 57 324 0.0 0.0 0.00 0.00 0.00 81 1019.6
20260507033014 57 223 0.0 0.0 0.00 0.00 0.00 81 1019.5
20260507031502 57 223 0.0 0.0 0.00 0.00 0.00 80 1019.5
20260507030002 57 223 0.0 0.0 0.00 0.00 0.00 80 1019.4
20260507024503 58 211 0.0 0.0 0.00 0.00 0.00 79 1019.3
20260507023001 57 212 0.0 0.0 0.00 0.00 0.00 79 1019.2
20260507021608 57 189 0.0 0.0 0.00 0.00 0.00 79 1019.2
20260507020114 57 157 0.0 0.0 0.00 0.00 0.00 80 1019.2
20260507014605 57 200 0.0 0.0 0.00 0.00 0.00 79 1019.1
20260507013100 57 206 0.0 0.0 0.00 0.00 0.00 79 1019.1
20260507011558 58 153 0.0 0.0 0.00 0.00 0.00 79 1019.2
20260507010050 58 149 0.0 0.0 0.00 0.00 0.00 78 1019.3
20260507004554 58 146 0.0 0.0 0.00 0.00 0.00 78 1019.3
20260507003049 58 155 0.0 0.0 0.00 0.00 0.00 77 1019.3
20260507001547 58 150 0.0 0.0 0.00 0.00 0.00 76 1019.3
20260507000044 58 105 0.0 0.0 0.00 0.00 0.00 76 1019.3
20260506234548 58 159 0.0 1.7 0.00 0.00 0.00 76 1019.3
20260506233101 58 133 0.0 0.0 0.00 0.00 0.00 75 1019.3
20260506231543 59 77 0.0 0.0 0.00 0.00 0.00 74 1019.4
20260506230024 59 155 0.0 1.7 0.00 0.00 0.00 73 1019.3
20260506224525 59 180 0.0 0.0 0.00 0.00 0.00 72 1019.4
20260506223012 59 107 0.0 0.0 0.00 0.00 0.00 72 1019.4
20260506221509 58 176 0.0 0.9 0.00 0.00 0.00 73 1019.5
20260506220007 59 163 0.0 0.0 0.00 0.00 0.00 73 1019.5
20260506214507 58 207 0.0 0.0 0.00 0.00 0.00 74 1019.5
20260506213003 58 133 0.0 0.0 0.00 0.00 0.00 74 1019.6
20260506211501 58 173 0.0 0.0 0.00 0.00 0.00 74 1019.7
20260506210100 58 150 0.0 0.0 0.00 0.00 0.00 74 1019.5
20260506204558 57 225 0.0 0.0 0.00 0.00 0.00 77 1019.5
20260506203043 57 148 0.0 0.0 0.00 0.00 0.00 80 1019.5
20260506201543 57 128 0.0 0.0 0.00 0.00 0.00 84 1019.5
20260506200040 56 82 0.0 0.0 0.00 0.00 0.00 85 1019.5
20260506194539 56 86 0.0 0.0 0.00 0.00 0.00 85 1019.4
20260506193039 56 85 0.0 0.0 0.00 0.00 0.00 85 1019.4
20260506191540 56 136 0.0 0.0 0.00 0.00 0.00 83 1019.3
20260506190035 55 96 0.0 0.0 0.00 0.00 0.00 85 1019.3
20260506184546 55 156 0.0 0.0 0.00 0.00 0.00 86 1019.3
20260506183028 55 165 0.0 0.0 0.00 0.00 0.00 89 1019.2
20260506181517 55 78 0.0 0.0 0.00 0.00 0.00 90 1019.1
20260506180016 55 74 0.0 0.0 0.00 0.00 0.00 88 1019.2
20260506174513 55 139 0.0 0.0 0.00 0.00 0.00 87 1018.8
20260506173013 55 186 0.0 0.0 0.00 0.00 0.00 87 1018.9
20260506171513 55 134 0.0 0.0 0.00 0.00 0.00 87 1019.1
20260506170013 55 205 0.0 0.0 0.00 0.00 0.00 86 1019.2
20260506164511 55 143 0.0 0.0 0.00 0.00 0.00 87 1018.9
20260506163009 54 261 0.0 0.0 0.00 0.00 0.00 88 1018.9
20260506161512 54 200 0.0 0.0 0.00 0.00 0.00 90 1018.6
20260506160010 54 217 0.0 0.0 0.00 0.00 0.00 91 1018.4
20260506154509 54 106 0.0 0.0 0.00 0.00 0.00 91 1018.3
20260506153018 54 123 0.0 0.0 0.00 0.00 0.00 91 1018.5
20260506151508 54 116 0.0 0.0 0.00 0.00 0.00 91 1018.8
20260506150031 54 146 0.0 0.0 0.00 0.00 0.00 90 1018.6
20260506144527 54 152 0.0 0.0 0.00 0.00 0.00 90 1018.3
20260506143030 54 210 0.0 0.0 0.00 0.00 0.00 90 1018.4
20260506141523 54 90 0.0 0.0 0.00 0.00 0.00 90 1018.3
20260506140015 54 142 0.0 0.0 0.00 0.00 0.00 90 1018.2
20260506134510 54 186 0.0 0.0 0.00 0.00 0.00 89 1018.3
20260506133009 54 146 0.0 0.0 0.00 0.00 0.00 89 1018.0
20260506131507 54 200 0.0 0.0 0.00 0.00 0.00 89 1017.9
20260506130006 54 135 0.0 0.0 0.00 0.00 0.00 89 1017.9
20260506124504 54 132 0.0 0.0 0.00 0.00 0.00 89 1017.7
20260506123004 54 132 0.0 0.0 0.00 0.00 0.00 89 1017.7
20260506121502 54 159 0.0 0.0 0.00 0.00 0.00 89 1017.4
20260506120044 54 180 0.0 0.0 0.00 0.00 0.00 89 1017.4
20260506114544 54 189 0.0 0.0 0.00 0.00 0.00 89 1017.5
20260506113038 54 154 0.0 0.0 0.00 0.00 0.00 89 1017.3
20260506111531 54 157 0.0 0.0 0.00 0.00 0.00 89 1017.0
20260506110028 54 93 0.0 0.0 0.00 0.00 0.00 89 1017.0
20260506104533 54 156 0.0 0.0 0.00 0.00 0.00 88 1016.9
20260506103027 54 193 0.0 0.0 0.00 0.00 0.00 89 1016.9
20260506101524 54 167 0.0 0.0 0.00 0.00 0.00 89 1016.8
20260506100023 54 251 0.0 0.0 0.00 0.00 0.00 89 1016.7
20260506094521 54 200 0.0 0.0 0.00 0.00 0.00 89 1016.6
20260506093008 54 201 0.0 0.0 0.00 0.00 0.00 89 1016.4
20260506091507 54 163 0.0 0.0 0.00 0.00 0.00 89 1016.3
20260506090006 53 227 0.0 0.0 0.00 0.00 0.00 91 1016.3
20260506084503 53 214 0.0 0.0 0.00 0.00 0.00 91 1016.1
20260506083002 54 158 0.0 0.0 0.00 0.00 0.00 90 1015.9
20260506081603 54 158 0.0 0.0 0.00 0.00 0.00 90 1015.8
20260506080106 54 158 0.0 0.0 0.00 0.00 0.00 91 1015.7
20260506073044 54 238 0.0 0.0 0.00 0.00 0.00 91 1015.4
20260506071542 54 238 0.0 0.0 0.00 0.00 0.00 90 1015.5